Waarnemingen

Advertentie
Mijn weer
Toulouse/Blagnac, Frankrijk (7630): temperatuur & dauwpunt: 14.05.2019 04:00:00 - 20.05.2019 04:00:00 (CEST)Toulouse/Blagnac, Frankrijk (7630): temperatuur 5cm: 14.05.2019 04:00:00 - 20.05.2019 04:00:00 (CEST)Toulouse/Blagnac, Frankrijk (7630): temperatuur -20cm & temperatuur -100cm: 14.05.2019 04:00:00 - 20.05.2019 04:00:00 (CEST)Toulouse/Blagnac, Frankrijk (7630): windsnelheid & windstoten: 14.05.2019 04:00:00 - 20.05.2019 04:00:00 (CEST)Toulouse/Blagnac, Frankrijk (7630): windrichting: 14.05.2019 04:00:00 - 20.05.2019 04:00:00 (CEST)Toulouse/Blagnac, Frankrijk (7630): luchtdruk: 14.05.2019 04:00:00 - 20.05.2019 04:00:00 (CEST)Toulouse/Blagnac, Frankrijk (7630): zicht: 14.05.2019 04:00:00 - 20.05.2019 04:00:00 (CEST)Toulouse/Blagnac, Frankrijk (7630): Zonneschijnduur: 14.05.2019 04:00:00 - 20.05.2019 04:00:00 (CEST)Toulouse/Blagnac, Frankrijk (7630): neerslag: 14.05.2019 04:00:00 - 20.05.2019 04:00:00 (CEST)
Datum & Tijd tt [°C] td [°C] tt 5cm [°C] tt -20cm [°C] tt -100cm [°C] ff [km/u] ff [kn] fx [km/u] fx [kn] dd ppp [hPa] vv [km] sd [min] rr [mm]
20.05.2019 04:00:00 10,8 9,2 9,7 14,6 14,2 16 9 33 18 W 1013,5 11 0 0,0
20.05.2019 03:00:00 11,5 9,2 10,6 14,7 14,3 22 12 36 19 W 1013,8 14 0 0,0
20.05.2019 02:00:00 12,1 10,0 11,7 14,8 14,2 21 11 39 21 W 1013,9 13 0 0,0
20.05.2019 01:00:00 12,2 10,1 11,7 14,9 14,3 22 12 38 21 W 1013,9 16 0 0,0
20.05.2019 00:00:00 12,2 9,9 11,6 14,9 14,2 26 14 42 23 W 1013,6 20 0 0,0
19.05.2019 23:00:00 12,2 9,6 11,5 15,0 14,3 23 13 34 19 W 1013,6 29 0 0,0
19.05.2019 22:00:00 12,4 10,1 11,0 15,1 14,3 20 11 35 19 W 1012,9 29 0 0,0
19.05.2019 21:00:00 12,8 10,9 11,7 15,0 14,2 23 12 40 22 W 1012,1 12 0 0,2
19.05.2019 20:00:00 13,4 10,0 13,7 15,0 14,2 23 13 39 21 W 1011,5 22 0 0,0
19.05.2019 19:00:00 14,1 9,9 15,2 15,0 14,2 26 14 40 21 W 1011,2 26 0 0,0
19.05.2019 18:00:00 13,9 9,1 14,4 14,9 14,2 29 16 42 23 W 1011,1 26 5 0,0
19.05.2019 17:00:00 15,1 9,7 15,8 14,7 14,2 27 15 40 22 W 1010,8 22 11 0,0
19.05.2019 16:00:00 14,4 10,4 12,1 14,6 14,2 22 12 36 19 W 1010,7 15 0 0,6
19.05.2019 15:00:00 14,9 8,8 14,7 14,5 14,3 17 9 34 18 WNW 1010,5 15 0 0,0
19.05.2019 14:00:00 15,5 8,7 17,6 14,3 14,2 16 9 32 17 NW 1010,5 28 14 0,0
19.05.2019 13:00:00 14,3 8,9 17,3 14,2 14,3 17 9 31 17 W 1010,5 35 0 0,0
19.05.2019 12:00:00 13,5 8,8 15,5 14,2 14,3 17 9 28 15 WNW 1010,7 40 0 0,0
19.05.2019 11:00:00 12,7 9,0 14,9 14,1 14,3 13 7 22 12 W 1010,6 39 0 0,0
19.05.2019 10:00:00 11,5 8,4 12,7 14,1 14,2 14 8 22 12 W 1010,6 57 0 0,0
19.05.2019 09:00:00 10,6 8,4 10,3 14,2 14,3 15 8 22 12 WNW 1010,6 40 0 0,0
19.05.2019 08:00:00 9,8 7,7 9,0 14,3 14,3 11 6 17 9 WNW 1010,5 47 0 0,0
19.05.2019 07:00:00 9,3 7,1 8,9 14,4 14,3 8 4 14 8 WNW 1010,3 50 0 0,0
19.05.2019 06:00:00 9,5 7,1 8,8 14,5 14,2 8 4 11 6 NW 1010,0 57 0 0,0
19.05.2019 05:00:00 8,9 7,3 6,4 14,6 14,2 2 1 8 4 Z 1010,0 37 0 0,0
19.05.2019 04:00:00 8,4 6,5 4,5 14,7 14,2 3 2 10 6 Z 1010,1 51 0 0,0
19.05.2019 03:00:00 7,8 5,9 5,0 14,8 14,2 6 3 12 7 ZZW 1010,4 53 0 0,0
19.05.2019 02:00:00 8,8 6,4 7,1 15,0 14,3 9 5 16 9 ZW 1010,7 48 0 0,0
19.05.2019 01:00:00 9,2 6,8 7,8 15,1 14,2 9 5 20 11 WZW 1011,1 49 0 0,0
19.05.2019 00:00:00 10,4 7,8 9,7 15,1 14,2 12 7 21 11 WZW 1011,3 46 0 0,0
18.05.2019 23:00:00 10,8 8,7 9,6 15,3 14,2 11 6 26 14 W 1011,4 40 0 0,0
18.05.2019 22:00:00 10,9 9,2 9,9 15,3 14,2 17 9 33 18 W 1011,1 25 0 0,2
18.05.2019 21:00:00 12,4 7,7 11,8 15,3 14,2 23 12 37 20 W 1010,4 59 23 0,0
18.05.2019 20:00:00 13,0 7,9 12,8 15,3 14,2 21 12 43 23 WNW 1009,7 39 3 0,0
18.05.2019 19:00:00 13,7 7,7 14,7 15,2 14,2 29 16 51 28 WNW 1009,4 25 15 0,0
18.05.2019 18:00:00 15,2 7,7 16,2 15,0 14,2 23 12 45 24 W 1008,7 28 13 0,0
18.05.2019 17:00:00 15,1 7,9 17,0 14,8 14,2 24 13 44 24 W 1008,3 28 0 0,0
18.05.2019 16:00:00 16,6 7,0 20,8 14,6 14,2 28 15 44 24 W 1007,9 16 51 0,0
18.05.2019 15:00:00 16,9 7,8 17,8 14,4 14,2 22 12 40 22 W 1007,9 22 34 0,0
18.05.2019 14:00:00 16,2 7,1 15,0 14,3 14,2 23 13 39 21 W 1008,2 26 17 0,0
18.05.2019 13:00:00 14,0 7,5 15,4 14,2 14,2 21 11 38 20 WNW 1008,8 30 9 0,0
18.05.2019 12:00:00 14,3 7,8 13,9 14,2 14,2 26 14 42 23 WNW 1008,7 30 6 0,0
18.05.2019 11:00:00 12,4 7,3 13,4 14,3 14,2 28 15 40 22 W 1008,9 39 3 0,2
18.05.2019 10:00:00 11,7 7,8 11,9 14,3 14,2 26 14 44 24 W 1008,9 20 14 0,0
18.05.2019 09:00:00 10,7 8,1 10,5 14,3 14,2 26 14 40 22 W 1008,9 33 0 0,0
18.05.2019 08:00:00 10,3 8,2 9,4 14,4 14,2 22 12 38 20 W 1009,1 42 0 0,0
18.05.2019 07:00:00 10,0 8,4 9,4 14,5 14,2 22 12 39 21 W 1008,8 25 0 0,0
18.05.2019 06:00:00 10,1 8,5 9,3 14,6 14,2 24 13 36 19 W 1008,4 35 0 0,0
18.05.2019 05:00:00 10,4 8,7 9,8 14,6 14,1 18 10 33 18 W 1008,3 41 0 0,0
18.05.2019 04:00:00 10,8 9,1 10,1 14,7 14,2 20 11 34 18 W 1008,6 26 0 0,0
18.05.2019 03:00:00 11,1 9,2 10,5 14,8 14,1 20 11 35 19 WZW 1008,9 22 0 0,0
18.05.2019 02:00:00 11,3 9,6 10,6 14,9 14,1 25 14 35 19 W 1009,1 17 0 0,0
18.05.2019 01:00:00 11,5 10,1 10,3 15,0 14,1 21 11 31 17 W 1009,0 16 0 0,0
18.05.2019 00:00:00 11,0 9,7 10,0 15,1 14,2 14 8 29 16 W 1009,1 16 0 0,2
17.05.2019 23:00:00 10,9 9,5 10,0 15,2 14,1 21 11 41 22 WZW 1008,9 13 0 0,2
17.05.2019 22:00:00 11,2 9,3 10,3 15,3 14,1 27 15 41 22 W 1008,3 16 0 2,8
17.05.2019 21:00:00 11,2 9,9 10,3 15,3 14,1 29 16 42 23 NW 1007,8 3,0 0 1,4
17.05.2019 20:00:00 12,9 10,8 11,8 15,3 14,1 22 12 38 21 WZW 1006,7 12 0 0,2
17.05.2019 19:00:00 13,2 10,9 13,1 15,4 14,1 22 12 45 24 WZW 1006,3 22 0 0,0
17.05.2019 18:00:00 12,9 11,0 11,8 15,4 14,1 26 14 40 22 W 1006,4 31 0 0,6
17.05.2019 17:00:00 12,5 11,1 11,6 15,5 14,1 22 12 38 21 W 1006,4 3,8 0 0,2
17.05.2019 16:00:00 12,1 10,8 11,5 15,5 14,1 27 14 51 27 WNW 1005,9 4,1 0 0,6
17.05.2019 15:00:00 12,1 10,3 12,2 15,5 14,1 29 15 50 27 W 1005,2 29 0 0,0
17.05.2019 14:00:00 12,2 10,9 12,7 15,5 14,1 32 18 49 26 W 1004,2 19 0 0,0
17.05.2019 13:00:00 12,7 11,6 12,3 15,5 14,0 26 14 38 20 W 1003,4 3,4 0 0,2
17.05.2019 12:00:00 12,2 11,7 12,2 15,6 14,1 16 8 24 13 W 1002,6 3,9 0 0,8
17.05.2019 11:00:00 12,0 11,7 11,6 15,7 14,1 20 11 27 15 NW 1002,2 2,8 0 0,8
17.05.2019 10:00:00 11,6 11,3 11,4 15,8 14,0 17 9 25 14 NW 1002,3 1,8 0 1,8
17.05.2019 09:00:00 11,4 11,1 10,9 16,0 14,1 15 8 32 17 NNW 1002,2 1,9 0 2,6
17.05.2019 08:00:00 11,5 11,0 11,2 16,1 14,0 17 9 29 16 N 1002,0 2,6 0 4,8
17.05.2019 07:00:00 11,9 11,3 11,6 16,2 14,0 17 9 28 15 N 1001,7 2,5 0 2,3
17.05.2019 06:00:00 12,5 11,7 11,8 16,3 14,0 14 8 24 13 N 1002,0 6 0 3,0
17.05.2019 05:00:00 13,3 11,4 11,9 16,4 14,0 10 5 17 9 ONO 1002,2 4,2 0 1,2
17.05.2019 04:00:00 13,4 10,7 11,9 16,5 14,0 10 6 24 13 ZZO 1002,9 10 0 0,0
17.05.2019 03:00:00 13,6 10,6 12,4 16,6 14,0 16 8 29 16 ZO 1003,8 15 0 0,0
17.05.2019 02:00:00 13,8 10,6 12,5 16,8 14,0 13 7 21 11 ZZO 1005,3 14 0 0,0
17.05.2019 01:00:00 14,7 9,3 14,1 16,9 14,0 16 8 27 15 Z 1006,1 21 0 0,0
17.05.2019 00:00:00 15,1 8,1 14,2 17,1 14,0 13 7 26 14 ZZO 1006,1 22 0 0,0
16.05.2019 23:00:00 15,5 6,5 13,6 17,1 14,0 12 7 22 12 ZZO 1006,5 23 0 0,0
16.05.2019 22:00:00 16,5 6,3 15,0 17,2 14,0 16 8 33 18 ZZO 1006,2 24 0 0,0
16.05.2019 21:00:00 18,5 6,0 17,5 17,2 14,0 16 8 31 17 ZZO 1005,6 27 15 0,0
16.05.2019 20:00:00 20,5 6,1 20,5 17,1 14,0 19 10 29 16 ZO 1005,4 16 6 0,0
16.05.2019 19:00:00 23,3 2,7 27,6 16,8 13,9 7 4 19 10 ZZO 1005,2 34 48 0,0
16.05.2019 18:00:00 24,2 4,0 29,9 16,6 14,0 6 3 22 12 Z 1005,7 43 50 0,0
16.05.2019 17:00:00 23,3 4,3 27,9 16,2 14,0 17 9 27 15 ZO 1006,4 27 35 0,0
16.05.2019 16:00:00 23,1 3,6 27,7 15,8 13,9 5 3 18 10 ZZO 1007,0 19 27 0,0
16.05.2019 15:00:00 22,5 3,1 28,7 15,4 14,0 7 4 19 10 O 1007,8 28 34 0,0
16.05.2019 14:00:00 22,4 4,9 31,8 14,9 13,9 9 5 24 13 OZO 1008,4 33 57 0,0
16.05.2019 13:00:00 21,1 4,6 29,9 14,6 13,9 7 4 23 12 O 1009,3 36 60 0,0
16.05.2019 12:00:00 19,9 5,5 27,6 14,4 13,9 7 4 17 9 ONO 1010,1 20 56 0,0
16.05.2019 11:00:00 17,9 5,5 23,7 14,3 13,9 11 6 33 18 O 1010,8 29 60 0,0
16.05.2019 10:00:00 15,6 3,7 22,6 14,3 13,9 16 9 26 14 ZO 1011,6 35 60 0,0
16.05.2019 09:00:00 12,6 4,8 13,2 14,5 13,9 4 2 12 6 Z 1012,2 29 60 0,0
16.05.2019 08:00:00 9,0 5,6 5,8 14,6 13,9 4 2 9 5 Z 1012,3 35 14 0,0
16.05.2019 07:00:00 7,9 4,5 3,0 14,7 13,9 6 4 9 5 Z 1012,7 26 5 0,0
16.05.2019 06:00:00 9,2 3,0 3,8 14,9 13,9 5 3 14 8 ZZO 1012,5 43 0 0,0
16.05.2019 05:00:00 10,9 2,5 3,9 15,1 13,9 7 4 14 7 OZO 1012,8 50 0 0,0
16.05.2019 04:00:00 11,0 3,3 4,1 15,2 13,9 4 2 11 6 NO 1013,4 58 0 0,0
16.05.2019 03:00:00 12,4 3,1 6,9 15,4 13,9 5 3 11 6 NO 1013,8 58 0 0,0
16.05.2019 02:00:00 13,2 3,0 9,0 15,5 13,9 6 3 19 10 N 1014,0 59 0 0,0
16.05.2019 01:00:00 14,4 2,6 9,5 15,6 13,9 8 4 15 8 NNO 1014,2 59 0 0,0
16.05.2019 00:00:00 15,8 1,5 11,8 15,8 13,9 8 4 18 10 N 1014,3 56 0 0,0
15.05.2019 23:00:00 16,3 1,2 12,6 15,9 13,9 10 6 18 10 NW 1014,3 59 0 0,0
15.05.2019 22:00:00 17,3 0,9 14,1 15,9 13,9 12 7 21 11 NW 1014,4 60 0 0,0
15.05.2019 21:00:00 20,2 -0,5 18,0 15,8 13,8 14 7 27 14 NNW 1013,6 42 42 0,0
15.05.2019 20:00:00 21,9 -0,8 24,1 15,7 13,9 15 8 27 15 NW 1013,1 24 60 0,0
15.05.2019 19:00:00 22,5 0,9 28,2 15,5 13,9 13 7 29 16 NW 1013,0 25 60 0,0
15.05.2019 18:00:00 22,4 1,9 29,3 15,3 13,9 14 8 35 19 NW 1013,2 25 60 0,0
15.05.2019 17:00:00 22,0 1,6 30,5 15,0 13,8 12 7 32 17 NW 1013,3 23 60 0,0
15.05.2019 16:00:00 21,7 1,3 27,0 14,8 13,9 17 9 35 19 N 1013,7 25 60 0,0
15.05.2019 15:00:00 21,4 1,1 29,8 14,6 13,8 14 8 32 18 NNW 1014,0 29 60 0,0
15.05.2019 14:00:00 20,6 1,4 30,8 14,5 13,8 13 7 31 17 N 1014,5 34 60 0,0
15.05.2019 13:00:00 19,4 2,3 29,6 14,4 13,9 13 7 24 13 N 1014,9 34 60 0,0
15.05.2019 12:00:00 17,9 1,0 27,1 14,3 13,9 11 6 23 12 NNW 1015,2 32 60 0,0
15.05.2019 11:00:00 17,0 2,2 21,7 14,3 13,8 10 5 22 12 N 1015,5 19 60 0,0
15.05.2019 10:00:00 14,9 3,4 16,9 14,4 13,8 8 5 17 9 NNO 1015,9 24 60 0,0
15.05.2019 09:00:00 13,0 2,5 10,1 14,4 13,8 7 4 16 9 N 1015,8 20 60 0,0
15.05.2019 08:00:00 10,2 2,3 6,1 14,6 13,8 12 6 16 9 NW 1016,0 20 60 0,0
15.05.2019 07:00:00 8,7 2,0 4,0 14,7 13,8 11 6 17 9 NW 1015,8 20 2 0,0
15.05.2019 06:00:00 7,7 2,4 4,1 14,8 13,8 7 4 16 8 NW 1015,8 52 0 0,0
15.05.2019 05:00:00 10,0 3,5 6,3 14,9 13,8 12 6 16 9 NW 1015,7 43 0 0,0
15.05.2019 04:00:00 13,0 0,7 5,5 15,0 13,8 11 6 26 14 NO 1015,4 20 0 0,0
15.05.2019 03:00:00 13,3 1,3 6,8 15,1 13,8 5 3 22 12 NNO 1015,5 52 0 0,0
15.05.2019 02:00:00 15,0 1,5 7,5 15,2 13,8 9 5 17 9 NO 1016,1 54 0 0,0
15.05.2019 01:00:00 14,2 4,5 8,1 15,2 13,8 7 4 17 9 NNW 1016,4 53 0 0,0
15.05.2019 00:00:00 15,2 5,1 11,5 15,3 13,8 12 6 31 17 NW 1016,6 54 0 0,0
14.05.2019 23:00:00 17,1 5,1 13,3 15,3 13,8 21 11 29 16 W 1016,5 48 0 0,0
14.05.2019 22:00:00 18,2 4,7 13,4 15,3 13,8 14 8 23 12 W 1016,3 56 0 0,0
14.05.2019 21:00:00 19,5 5,2 14,8 15,2 13,8 16 9 24 13 W 1016,0 53 6 0,0
14.05.2019 20:00:00 21,6 4,6 18,5 15,2 13,8 14 8 25 14 W 1015,9 30 60 0,0
14.05.2019 19:00:00 22,7 4,2 22,0 15,0 13,8 17 9 33 18 WNW 1016,1 23 60 0,0
14.05.2019 18:00:00 23,0 4,5 24,1 14,8 13,8 18 10 35 19 NNW 1016,2 23 60 0,0
14.05.2019 17:00:00 23,4 3,8 26,1 14,6 13,8 19 10 34 18 NNW 1016,7 24 60 0,0
14.05.2019 16:00:00 22,3 1,3 27,8 14,4 13,8 14 7 42 23 N 1017,2 24 60 0,0
14.05.2019 15:00:00 21,7 2,9 28,9 14,2 13,8 16 8 36 20 N 1017,7 25 60 0,0
14.05.2019 14:00:00 20,2 4,2 28,9 14,1 13,8 11 6 33 18 N 1018,5 28 60 0,0
14.05.2019 13:00:00 18,7 5,2 27,5 14,0 13,8 10 6 29 16 N 1019,2 29 60 0,0
14.05.2019 12:00:00 17,5 4,4 25,3 13,9 13,8 11 6 31 17 NNW 1019,9 34 60 0,0
14.05.2019 11:00:00 15,6 4,6 21,4 13,9 13,8 9 5 24 13 NW 1020,6 38 60 0,0
14.05.2019 10:00:00 13,9 4,2 16,0 14,0 13,8 9 5 22 12 NW 1021,2 24 60 0,0
14.05.2019 09:00:00 12,0 4,5 10,5 14,1 13,8 8 5 22 12 WNW 1021,8 42 60 0,0
14.05.2019 08:00:00 9,9 3,6 4,0 14,2 13,8 5 3 12 6 WNW 1021,9 38 60 0,0
14.05.2019 07:00:00 8,3 2,7 4,0 14,3 13,8 6 3 15 8 WNW 1022,0 42 1 0,0
14.05.2019 06:00:00 8,6 2,6 4,3 14,4 13,8 7 4 14 7 NW 1022,1 60 0 0,0
14.05.2019 05:00:00 9,4 2,7 5,1 14,5 13,8 10 5 15 8 NW 1022,3 60 0 0,0
14.05.2019 04:00:00 9,8 2,6 5,2 14,6 13,8 9 5 12 6 NW 1022,5 60 0 0,0

tt = temperatuur
td = dauwpunt
tt 5cm = temperatuur 5cm
tt -20cm = temperatuur -20cm
tt -100cm = temperatuur -100cm
ff = windsnelheid
fx = windstoten
dd = windrichting
ppp = luchtdruk
vv = zicht
sd = Zonneschijnduur
rr = neerslag

Weerstations in de omgeving